Regional Weather Roundup
Issued by NWS

Home | Current Version | Previous Version | Text Only | Print | Product List | Glossary Off
Versions: 1 2 3 4 5 6 7 8 9 10 11 12 13 14 15 16 17 18 19 20 21 22 23 24 25 26 27 28 29 30 31 32 33 34 35 36 37 38 39 40 41 42 43 44 45 46 47 48 49 50

000
ASUS43 KIND 130959
RWRIN

WEATHER ROUNDUP FOR INDIANA
NATIONAL WEATHER SERVICE INDIANAPOLIS IN
600 AM EDT SUN JUL 13 2014

NOTE: "FAIR" INDICATES FEW OR NO CLOUDS BELOW 12,000 FEET WITH NO
SIGNIFICANT WEATHER AND/OR OBSTRUCTIONS TO VISIBILITY.

* - STATION DOES NOT REPORT WEATHER SUCH AS PRECIPITATION OR FOG.

+ - STATION NOT QUALITY CONTROLLED BY THE NATIONAL WEATHER SERVICE.
    USE DATA WITH CAUTION...ESPECIALLY DEWPOINT AND RELATIVE
    HUMIDITY OBSERVATIONS.

INZ001>003-010>013-019-020-131100-
NORTHWEST INDIANA

CITY           SKY/WX    TMP DP  RH WIND       PRES   REMARKS
GARY /AIRPORT/ CLOUDY    73  70  88 W8        29.89R
RENSSELAER +   RAIN      72  72 100 SW9       29.93R
VALPARAISO     CLOUDY    71  69  93 W9        29.90R

$$

LMZ046-743>745-131100-
SOUTHERN LAKE MICHIGAN

STATION/POSITION TIME  TEMP WIND        PRES
                       AIR  DIR/SP/G
                 (UTC) (F)  (DEG/KT/KT) (MB)
MICHIGAN CITY    0900   71  240/ 19/ 22   N/A

$$

INZ004-005-014>016-021>024-131100-
NORTH CENTRAL INDIANA

CITY           SKY/WX    TMP DP  RH WIND       PRES   REMARKS
GOSHEN         RAIN      75  71  87 W17G31    29.86R FOG
SOUTH BEND     LGT RAIN  72  69  90 W15G23    29.87R

$$

INZ006>009-017-018-025>027-131100-
NORTHEAST INDIANA

CITY           SKY/WX    TMP DP  RH WIND       PRES   REMARKS
ANGOLA *+      CLOUDY    73  66  78 SW12      29.84F
FORT WAYNE     LGT RAIN  77  72  84 SW16G22   29.88F

$$

INZ028-029-035-036-043>045-051>053-131100-
WEST CENTRAL INDIANA

CITY           SKY/WX    TMP DP  RH WIND       PRES   REMARKS
GREENCASTLE +  CLOUDY    73  72  94 S3        29.97F
LAFAYETTE      RAIN      71  70  96 W5        29.94S FOG
TERRE HAUTE    CLOUDY    76  72  87 SW8       29.96S

$$

INZ030>032-037>040-046>048-054>057-064-065-131100-
CENTRAL INDIANA

CITY           SKY/WX    TMP DP  RH WIND       PRES   REMARKS
INDIANAPOLIS   CLOUDY    76  71  85 SW13      29.95F
-EAGLE CREEK   CLOUDY    76  70  82 SW8       29.95S
KOKOMO *+      CLOUDY    72  66  83 W18G29    29.94R
MT COMFORT *+  CLOUDY    75 N/A N/A S7        29.97F
SHELBYVILLE    CLOUDY    75  70  84 S8        29.97S

$$

INZ033-034-041-042-049-050-058-059-131100-
EAST CENTRAL INDIANA

CITY           SKY/WX    TMP DP  RH WIND       PRES   REMARKS
MUNCIE         CLOUDY    76  69  79 SW10      29.94S

$$

INZ060-061-067>069-081>083-085>088-131100-
SOUTHWEST INDIANA

CITY           SKY/WX    TMP DP  RH WIND       PRES   REMARKS
EVANSVILLE     PTCLDY    75  71  87 SW5       30.02R
HUNTINGBURG *+ MOCLDY    75  70  83 SW6       30.02R

$$

INZ062-063-066-070>080-084-089>092-131100-
SOUTH CENTRAL AND SOUTHEAST INDIANA

CITY           SKY/WX    TMP DP  RH WIND       PRES   REMARKS
BLOOMINGTON    CLOUDY    78  70  76 SW9       29.99S

$$




USA.gov is the U.S. government's official web portal to all federal, state and local government web resources and services.